TimePST,TemperatureF,Dew PointF,Humidity,Sea Level PressureIn,VisibilityMPH,Wind Direction,Wind SpeedMPH,Gust SpeedMPH,PrecipitationIn,Events,Conditions,WindDirDegrees,DateUTC
12:15 AM,8.6,-2.2,62,30.11,10.0,Calm,Calm,-,N/A,,Overcast,0,2013-12-06 08:15:00
12:35 AM,8.6,-0.4,67,30.10,10.0,Calm,Calm,-,N/A,,Mostly Cloudy,0,2013-12-06 08:35:00
12:55 AM,8.6,-2.2,62,30.10,10.0,Calm,Calm,-,N/A,,Partly Cloudy,0,2013-12-06 08:55:00
1:15 AM,8.6,-2.2,62,30.10,10.0,Calm,Calm,-,N/A,,Clear,0,2013-12-06 09:15:00
1:35 AM,8.6,-2.2,62,30.10,10.0,Calm,Calm,-,N/A,,Clear,0,2013-12-06 09:35:00
1:55 AM,8.6,-2.2,62,30.10,10.0,Calm,Calm,-,N/A,,Partly Cloudy,0,2013-12-06 09:55:00
2:15 AM,6.8,-2.2,67,30.10,10.0,Calm,Calm,-,N/A,,Mostly Cloudy,0,2013-12-06 10:15:00
2:35 AM,6.8,-2.2,67,30.10,10.0,Calm,Calm,-,N/A,,Mostly Cloudy,0,2013-12-06 10:35:00
2:55 AM,6.8,-2.2,67,30.10,10.0,Calm,Calm,-,N/A,,Mostly Cloudy,0,2013-12-06 10:55:00
3:15 AM,6.8,-2.2,67,30.10,10.0,Calm,Calm,-,N/A,,Overcast,0,2013-12-06 11:15:00
3:35 AM,6.8,-2.2,67,30.09,10.0,Calm,Calm,-,N/A,,Mostly Cloudy,0,2013-12-06 11:35:00
3:55 AM,8.6,-2.2,62,30.09,9.0,Calm,Calm,-,N/A,,Mostly Cloudy,0,2013-12-06 11:55:00
4:15 AM,8.6,-2.2,62,30.09,8.0,Calm,Calm,-,N/A,,Overcast,0,2013-12-06 12:15:00
4:35 AM,6.8,-2.2,67,30.09,9.0,Calm,Calm,-,N/A,,Mostly Cloudy,0,2013-12-06 12:35:00
4:55 AM,8.6,-2.2,62,30.09,10.0,Calm,Calm,-,N/A,,Overcast,0,2013-12-06 12:55:00
5:15 AM,8.6,-0.4,67,30.09,10.0,Calm,Calm,-,N/A,,Mostly Cloudy,0,2013-12-06 13:15:00
5:35 AM,8.6,-2.2,62,30.09,9.0,Calm,Calm,-,N/A,,Mostly Cloudy,0,2013-12-06 13:35:00
5:55 AM,6.8,-2.2,67,30.09,5.0,NNW,3.5,-,N/A,,Mostly Cloudy,340,2013-12-06 13:55:00
6:15 AM,6.8,-2.2,67,30.09,8.0,Calm,Calm,-,N/A,,Scattered Clouds,0,2013-12-06 14:15:00
6:35 AM,6.8,-2.2,67,30.09,10.0,North,3.5,-,N/A,,Mostly Cloudy,350,2013-12-06 14:35:00
6:55 AM,8.6,-2.2,62,30.09,10.0,Calm,Calm,-,N/A,,Overcast,0,2013-12-06 14:55:00
7:15 AM,8.6,-0.4,67,30.08,10.0,Calm,Calm,-,N/A,,Overcast,0,2013-12-06 15:15:00
7:35 AM,8.6,-0.4,67,30.08,7.0,Calm,Calm,-,N/A,,Overcast,0,2013-12-06 15:35:00
7:55 AM,8.6,-0.4,67,30.08,5.0,Calm,Calm,-,N/A,,Overcast,0,2013-12-06 15:55:00
8:15 AM,8.6,-0.4,67,30.08,4.0,Calm,Calm,-,N/A,,Overcast,0,2013-12-06 16:15:00
8:35 AM,8.6,-0.4,67,30.08,5.0,Calm,Calm,-,N/A,,Overcast,0,2013-12-06 16:35:00
8:55 AM,10.4,-0.4,62,30.09,4.0,Calm,Calm,-,N/A,,Overcast,0,2013-12-06 16:55:00
9:15 AM,10.4,-0.4,62,30.09,2.5,NNW,3.5,-,N/A,,Overcast,340,2013-12-06 17:15:00
9:35 AM,10.4,1.4,67,30.09,4.0,NNW,3.5,-,N/A,,Mostly Cloudy,330,2013-12-06 17:35:00
9:55 AM,10.4,1.4,67,30.09,5.0,Calm,Calm,-,N/A,,Partly Cloudy,0,2013-12-06 17:55:00
10:15 AM,10.4,1.4,67,30.08,4.0,Calm,Calm,-,N/A,,Mostly Cloudy,0,2013-12-06 18:15:00
10:35 AM,12.2,1.4,62,30.08,7.0,NNE,3.5,-,N/A,,Overcast,30,2013-12-06 18:35:00
10:55 AM,12.2,3.2,67,30.07,7.0,ENE,4.6,-,N/A,,Overcast,60,2013-12-06 18:55:00
11:15 AM,12.2,1.4,62,30.06,6.0,Calm,Calm,-,N/A,,Overcast,0,2013-12-06 19:15:00
11:35 AM,12.2,3.2,67,30.05,7.0,North,3.5,-,N/A,,Overcast,10,2013-12-06 19:35:00
11:55 AM,15.8,3.2,58,30.04,9.0,NE,4.6,-,N/A,,Mostly Cloudy,40,2013-12-06 19:55:00
12:15 PM,15.8,3.2,58,30.03,7.0,Calm,Calm,-,N/A,,Mostly Cloudy,0,2013-12-06 20:15:00
12:35 PM,15.8,5.0,62,30.03,6.0,Calm,Calm,-,N/A,,Overcast,0,2013-12-06 20:35:00
12:55 PM,15.8,6.8,68,30.02,4.0,Calm,Calm,-,N/A,,Overcast,0,2013-12-06 20:55:00
1:15 PM,17.6,6.8,63,30.01,5.0,West,3.5,-,N/A,,Overcast,280,2013-12-06 21:15:00
1:35 PM,17.6,6.8,63,30.00,10.0,Calm,Calm,-,N/A,,Overcast,0,2013-12-06 21:35:00
1:55 PM,17.6,6.8,63,29.99,10.0,Calm,Calm,-,N/A,,Mostly Cloudy,0,2013-12-06 21:55:00
2:15 PM,17.6,6.8,63,29.98,10.0,West,3.5,-,N/A,,Scattered Clouds,280,2013-12-06 22:15:00
2:35 PM,17.6,6.8,63,29.97,10.0,Calm,Calm,-,N/A,,Mostly Cloudy,0,2013-12-06 22:35:00
2:55 PM,19.4,6.8,58,29.97,10.0,WNW,3.5,-,N/A,,Overcast,300,2013-12-06 22:55:00
3:15 PM,19.4,8.6,63,29.97,10.0,Calm,Calm,-,N/A,,Overcast,0,2013-12-06 23:15:00
3:35 PM,21.2,8.6,58,29.96,10.0,South,8.1,-,N/A,,Overcast,180,2013-12-06 23:35:00
3:55 PM,21.2,6.8,54,29.96,10.0,South,6.9,-,N/A,,Overcast,190,2013-12-06 23:55:00
4:15 PM,19.4,6.8,58,29.96,10.0,NNE,3.5,-,N/A,,Overcast,30,2013-12-07 00:15:00
4:35 PM,17.6,5.0,58,29.96,10.0,Calm,Calm,-,N/A,,Overcast,0,2013-12-07 00:35:00
4:55 PM,19.4,6.8,58,29.95,10.0,SE,4.6,-,N/A,,Overcast,140,2013-12-07 00:55:00
5:15 PM,19.4,6.8,58,29.95,10.0,North,4.6,-,N/A,,Overcast,360,2013-12-07 01:15:00
5:35 PM,19.4,6.8,58,29.95,10.0,NE,4.6,-,N/A,,Overcast,40,2013-12-07 01:35:00
5:55 PM,19.4,6.8,58,29.94,10.0,NNE,5.8,-,N/A,,Overcast,30,2013-12-07 01:55:00
6:15 PM,17.6,6.8,63,29.93,6.0,NE,5.8,-,N/A,,Overcast,40,2013-12-07 02:15:00
6:35 PM,17.6,6.8,63,29.93,3.0,NNE,9.2,-,N/A,,Overcast,30,2013-12-07 02:35:00
6:55 PM,17.6,6.8,63,29.92,3.0,NNE,12.7,-,N/A,,Overcast,20,2013-12-07 02:55:00
7:15 PM,17.6,6.8,63,29.92,4.0,NNE,11.5,-,N/A,,Overcast,30,2013-12-07 03:15:00
7:35 PM,17.6,6.8,63,29.92,5.0,NNE,10.4,-,N/A,,Overcast,20,2013-12-07 03:35:00
7:55 PM,17.6,6.8,63,29.91,5.0,NNE,10.4,16.1,N/A,,Overcast,30,2013-12-07 03:55:00
8:15 PM,17.6,6.8,63,29.91,4.0,NNE,15.0,-,N/A,,Overcast,20,2013-12-07 04:15:00
8:35 PM,17.6,6.8,63,29.91,5.0,NNE,12.7,-,N/A,,Overcast,20,2013-12-07 04:35:00
8:55 PM,17.6,6.8,63,29.91,4.0,North,12.7,-,N/A,,Overcast,10,2013-12-07 04:55:00
9:15 PM,15.8,6.8,68,29.90,2.0,North,12.7,16.1,N/A,,Overcast,10,2013-12-07 05:15:00
9:35 PM,15.8,6.8,68,29.90,1.5,NNE,18.4,21.9,N/A,,Overcast,20,2013-12-07 05:35:00
9:55 PM,15.8,6.8,68,29.90,2.0,NNE,13.8,-,N/A,,Overcast,20,2013-12-07 05:55:00
10:15 PM,15.8,6.8,68,29.90,2.0,North,13.8,18.4,N/A,,Overcast,10,2013-12-07 06:15:00
10:35 PM,15.8,6.8,68,29.90,2.0,North,15.0,-,N/A,,Overcast,10,2013-12-07 06:35:00
10:55 PM,15.8,6.8,68,29.90,3.0,North,16.1,19.6,N/A,,Overcast,10,2013-12-07 06:55:00
11:15 PM,15.8,6.8,68,29.89,3.0,North,13.8,17.3,N/A,,Overcast,10,2013-12-07 07:15:00
11:35 PM,15.8,6.8,68,29.89,3.0,North,15.0,-,N/A,,Overcast,360,2013-12-07 07:35:00
11:55 PM,15.8,6.8,68,29.89,5.0,North,12.7,-,N/A,,Overcast,360,2013-12-07 07:55:00